Date,TemperatureHighF,TemperatureAvgF,TemperatureLowF,DewpointHighF,DewpointAvgF,DewpointLowF,HumidityHigh,HumidityAvg,HumidityLow,PressureMaxIn,PressureMinIn,WindSpeedMaxMPH,WindSpeedAvgMPH,GustSpeedMaxMPH,PrecipitationSumIn
2013-1-1,38.0,32.0,21.0,29.0,20.5,8.0,80,63,50,29.97,29.78,7,2,15,0.00
2013-1-2,32.0,23.2,12.0,19.0,12.7,6.0,77,64,51,30.16,29.95,5,1,11,0.00
2013-1-3,25.0,12.2,3.0,17.0,2.3,-6.0,73,64,56,30.21,29.99,9,2,16,0.00
2013-1-4,38.0,31.5,25.0,28.0,22.3,18.0,82,69,56,29.99,29.85,7,2,16,0.06
2013-1-5,41.0,33.2,25.0,27.0,23.6,19.0,84,68,53,30.24,29.93,9,1,10,0.09
2013-1-6,42.0,32.5,25.0,31.0,26.4,22.0,91,78,62,30.18,29.91,8,2,12,0.08
2013-1-7,40.0,32.1,22.0,30.0,24.9,18.0,88,75,59,30.37,29.99,12,1,14,0.04
2013-1-8,43.0,31.7,22.0,31.0,25.4,18.0,89,78,60,30.37,30.27,6,2,10,0.09
2013-1-9,42.0,31.5,21.0,34.0,27.7,19.0,96,86,72,30.36,30.05,9,1,24,0.11
2013-1-10,46.0,39.0,28.0,30.0,26.0,23.0,84,61,44,30.54,30.14,10,2,24,0.15
2013-1-11,37.0,31.3,25.0,34.0,28.3,22.0,100,89,71,30.54,30.12,4,0,6,0.20
2013-1-12,44.0,39.5,34.0,44.0,39.5,34.0,100,100,100,30.14,30.08,4,1,9,0.07
2013-1-13,38.0,37.7,37.0,38.0,37.7,37.0,100,100,100,30.11,30.08,1,0,3,0.01
2013-1-17,40.0,33.3,26.0,39.0,26.8,13.0,100,78,57,30.11,29.93,6,2,16,0.07
2013-1-18,26.0,23.1,19.0,14.0,7.6,2.0,62,51,39,30.40,30.05,10,2,20,0.01
2013-1-19,44.0,33.0,22.0,28.0,20.8,10.0,73,61,50,30.32,29.84,6,2,17,0.09
2013-1-20,50.0,37.7,28.0,34.0,22.9,9.0,78,57,29,30.01,29.61,8,2,19,0.02
2013-1-21,29.0,25.1,20.0,19.0,12.6,5.0,84,59,44,30.05,29.78,4,1,13,0.01
2013-1-22,21.0,17.8,11.0,16.0,-0.4,-9.0,86,46,29,30.13,29.77,8,2,21,0.01
2013-1-23,18.0,11.8,6.0,0.0,-4.4,-7.0,64,48,33,30.18,30.10,10,1,12,0.00
2013-1-24,20.0,11.6,4.0,2.0,-2.7,-5.0,71,54,33,30.32,30.11,18,2,20,0.00
2013-1-25,21.0,14.6,9.0,5.0,2.3,-1.0,68,58,47,30.37,30.08,4,1,8,0.00
2013-1-28,32.0,27.0,20.0,32.0,22.8,10.0,100,85,58,30.38,29.94,5,1,6,0.00
2013-1-29,42.0,35.9,32.0,39.0,35.1,32.0,100,97,87,30.13,29.94,5,1,8,0.16
2013-1-30,46.0,40.6,36.0,46.0,40.6,36.0,100,100,100,30.06,29.33,3,0,5,0.22
2013-1-31,46.0,38.2,28.0,46.0,23.7,13.0,100,57,38,29.67,29.15,7,2,21,1.24
2013-2-1,30.0,26.5,22.0,22.0,11.3,4.0,82,53,37,30.16,29.67,13,2,16,0.01
2013-2-2,29.0,23.2,18.0,16.0,9.8,6.0,78,57,39,30.21,30.02,7,2,16,0.00
2013-2-3,30.0,23.0,16.0,19.0,15.8,13.0,89,74,55,30.02,29.75,4,0,6,0.00
2013-2-4,30.0,24.8,21.0,18.0,10.3,6.0,82,55,37,29.93,29.75,5,1,12,0.00
2013-2-5,30.0,24.8,19.0,24.0,16.2,11.0,89,70,56,29.98,29.87,6,1,9,0.00
2013-2-6,37.0,29.0,22.0,30.0,18.6,4.0,95,68,39,30.33,29.88,6,1,12,0.01
2013-2-7,31.0,24.1,16.0,13.0,8.4,4.0,72,52,36,30.50,30.32,6,1,11,0.01
2013-2-8,30.0,28.1,26.0,30.0,22.8,13.0,100,82,55,30.35,29.73,13,3,25,0.00
2013-2-9,30.0,24.9,18.0,26.0,15.8,4.0,100,72,38,30.32,29.77,13,3,22,0.01
2013-2-10,29.0,16.3,3.0,12.0,5.1,-4.0,77,62,41,30.48,30.28,5,1,9,0.01
2013-2-11,38.0,31.4,19.0,38.0,28.7,13.0,100,90,68,30.28,29.64,5,1,9,0.39
2013-2-12,43.0,37.4,34.0,35.0,30.7,24.0,100,78,60,29.93,29.67,8,1,15,0.33
2013-2-13,42.0,35.4,27.0,29.0,24.9,22.0,84,66,51,29.91,29.69,7,1,11,0.02
2013-2-14,43.0,34.5,24.0,31.0,25.3,20.0,90,70,52,29.94,29.69,7,1,8,0.01
2013-2-15,51.0,40.1,30.0,34.0,29.2,24.0,83,66,45,29.98,29.86,10,2,15,0.00
2013-2-16,37.0,31.3,28.0,31.0,23.1,12.0,97,73,49,29.99,29.78,7,2,17,0.06
2013-2-17,28.0,23.7,17.0,12.0,3.8,0.0,53,42,30,29.92,29.64,20,5,21,0.01
2013-2-18,34.0,24.2,17.0,14.0,5.4,0.0,62,45,29,30.16,29.92,7,2,18,0.00
2013-2-19,39.0,32.1,24.0,35.0,23.0,12.0,100,71,50,30.14,29.61,3,1,11,0.21
2013-2-20,35.0,29.7,25.0,35.0,16.6,8.0,100,60,42,29.91,29.62,12,2,15,0.09
2013-2-21,32.0,27.0,24.0,16.0,13.3,11.0,67,56,47,30.31,29.89,10,2,14,0.00
2013-2-22,36.0,29.4,20.0,26.0,20.6,14.0,81,69,58,30.40,30.26,5,1,10,0.00
2013-2-23,36.0,34.2,31.0,36.0,32.8,26.0,100,95,74,30.25,29.85,2,0,7,0.13
2013-2-24,40.0,35.9,30.0,40.0,33.0,23.0,100,90,66,29.95,29.74,6,1,12,0.09
2013-2-25,43.0,33.7,24.0,32.0,26.9,22.0,95,77,57,30.22,29.95,3,0,8,0.01
2013-2-26,45.0,36.3,26.0,33.0,27.5,23.0,96,72,53,30.29,30.02,8,1,10,0.00
2013-2-27,42.0,37.1,32.0,42.0,36.4,26.0,100,98,68,30.02,29.51,11,2,15,1.04
2013-2-28,42.0,37.6,34.0,42.0,36.8,34.0,100,97,85,29.59,29.53,6,1,12,0.07
2013-3-1,42.0,36.6,32.0,39.0,31.9,26.0,100,84,61,29.75,29.58,4,1,8,0.01
2013-3-2,39.0,34.7,29.0,26.0,24.6,23.0,80,67,55,29.75,29.68,8,1,14,0.00
2013-3-3,35.0,30.6,27.0,27.0,20.7,17.0,82,66,52,29.73,29.66,6,1,12,0.00
2013-3-4,40.0,32.9,28.0,23.0,20.3,17.0,72,60,50,29.88,29.72,6,2,16,0.00
2013-3-5,43.0,35.8,27.0,28.0,25.0,20.0,79,65,53,30.02,29.88,7,2,16,0.00
2013-3-6,43.0,37.0,32.0,37.0,29.3,26.0,90,73,63,30.04,29.96,17,4,21,0.01
2013-3-7,40.0,35.5,32.0,33.0,28.3,24.0,100,76,55,30.10,30.01,19,6,25,0.06
2013-3-8,39.0,33.7,31.0,34.0,31.1,28.0,100,90,74,30.23,30.02,17,5,26,0.15
2013-3-9,50.0,38.9,31.0,29.0,26.1,23.0,80,62,39,30.31,30.21,8,2,13,0.01
2013-3-10,54.0,40.2,25.0,35.0,28.8,21.0,90,66,41,30.36,30.22,6,2,12,0.00
2013-3-11,51.0,42.4,35.0,43.0,36.8,31.0,90,81,72,30.27,30.07,8,2,12,0.00
2013-3-31,54.0,47.1,43.0,42.0,39.9,37.0,98,77,52,29.86,29.70,6,2,16,0.20
2013-4-1,56.0,44.0,35.0,51.0,34.9,13.0,100,75,33,29.87,29.57,10,2,23,0.21
2013-4-2,41.0,35.7,29.0,20.0,12.9,9.0,57,40,29,30.03,29.87,8,2,20,0.00
2013-4-3,42.0,36.3,31.0,17.0,14.3,12.0,50,41,31,30.27,30.01,12,3,15,0.00
2013-4-4,55.0,41.6,26.0,27.0,19.8,14.0,72,43,27,30.35,30.01,8,2,13,0.00
2013-4-5,58.0,46.5,37.0,27.0,22.5,19.0,52,40,25,30.01,29.72,9,2,17,0.00
2013-4-6,48.0,40.1,32.0,23.0,12.9,3.0,60,35,20,30.26,29.97,6,2,17,0.00
2013-4-7,60.0,47.2,33.0,41.0,29.7,17.0,77,52,29,30.25,29.93,11,3,21,0.00
2013-4-8,64.0,51.8,39.0,42.0,39.7,36.0,95,66,43,30.09,29.96,6,1,11,0.00
2013-4-9,71.0,60.8,48.0,56.0,46.3,42.0,97,62,35,29.99,29.86,10,2,14,0.02
2013-4-10,61.0,54.2,49.0,55.0,50.9,43.0,100,89,61,29.97,29.79,5,1,16,0.54
2013-4-11,52.0,45.6,36.0,52.0,37.2,24.0,100,74,43,30.09,29.83,14,4,22,0.19
2013-4-12,41.0,38.4,35.0,41.0,37.6,31.0,100,97,86,30.09,29.75,12,1,12,0.00
2013-4-13,55.0,45.6,31.0,46.0,38.8,31.0,100,80,53,29.91,29.77,6,1,10,0.01
2013-4-14,51.0,45.1,38.0,41.0,32.7,27.0,93,64,42,30.22,29.91,8,1,15,0.01
2013-4-15,61.0,48.0,34.0,38.0,33.6,29.0,84,60,40,30.35,30.21,6,1,11,0.00
2013-4-16,65.0,53.7,43.0,56.0,45.7,34.0,92,75,61,30.33,30.08,8,1,14,0.02
2013-4-17,63.0,55.9,46.0,57.0,41.4,34.0,100,63,34,30.29,30.09,7,2,14,0.06
2013-4-18,62.0,50.5,38.0,49.0,40.1,34.0,90,69,44,30.35,30.09,7,1,14,0.00
2013-4-19,72.0,61.5,53.0,67.0,59.2,49.0,100,92,78,30.09,29.55,7,2,17,0.48
2013-4-20,60.0,49.5,41.0,60.0,37.5,21.0,100,69,33,30.31,29.65,9,2,16,0.51
2013-4-21,50.0,42.0,31.0,27.0,22.1,20.0,72,46,32,30.61,30.29,8,2,20,0.00
2013-4-22,57.0,42.0,36.0,34.0,27.4,23.0,70,57,32,30.66,30.47,4,1,10,0.00
2013-4-23,51.0,42.1,35.0,41.0,33.8,28.0,79,72,66,30.51,30.12,4,1,10,0.00
2013-4-24,42.0,37.2,35.0,36.0,34.6,33.0,96,90,79,30.12,30.03,1,0,2,0.00
2013-4-25,46.0,45.3,45.0,35.0,34.2,34.0,64,64,63,30.10,30.05,4,2,5,0.04
2013-4-26,51.0,43.0,36.0,31.0,30.8,30.0,83,64,46,30.42,30.31,3,1,7,0.00
2013-4-27,65.0,51.0,34.0,39.0,33.1,28.0,85,54,29,30.43,30.26,6,1,11,0.00
2013-4-28,73.0,57.3,39.0,43.0,38.4,33.0,85,53,28,30.29,30.13,7,2,12,0.00
2013-4-29,57.0,54.1,51.0,53.0,45.5,34.0,100,75,41,30.23,30.19,5,0,8,0.09
2013-4-30,71.0,58.9,50.0,54.0,45.1,34.0,100,67,31,30.31,30.20,5,1,10,0.02
2013-5-1,73.0,59.0,41.0,44.0,36.3,31.0,81,47,21,30.45,30.31,5,1,13,0.00
2013-5-2,77.0,62.4,44.0,49.0,43.8,39.0,88,55,28,30.45,30.27,9,1,16,0.00
2013-5-3,70.0,61.4,53.0,47.0,37.9,33.0,66,43,27,30.47,30.30,8,2,16,0.00
2013-5-4,73.0,59.5,43.0,49.0,45.0,40.0,90,62,34,30.36,30.16,7,1,12,0.00
2013-5-5,71.0,56.6,42.0,46.0,41.0,36.0,96,61,29,30.29,30.14,4,2,9,0.00
2013-5-6,72.0,58.3,42.0,53.0,46.8,40.0,96,68,44,30.26,30.08,5,1,10,0.00
2013-5-7,77.0,64.4,49.0,57.0,53.3,48.0,100,71,41,30.16,30.04,5,1,8,0.00
2013-5-8,65.0,61.7,57.0,65.0,60.8,55.0,100,97,80,30.13,29.96,5,1,8,0.10
2013-5-9,66.0,58.8,52.0,60.0,57.1,52.0,100,94,82,30.01,29.87,3,0,7,0.02
2013-5-10,78.0,63.0,50.0,62.0,55.1,-99.9,100,82,52,29.98,29.86,5,1,8,0.00
2013-5-11,69.0,63.7,60.0,69.0,63.3,60.0,100,99,90,29.86,29.68,4,1,10,0.22
2013-5-12,63.0,56.2,46.0,58.0,45.8,-99.9,100,73,33,29.86,29.65,6,1,12,0.01
2013-5-13,52.0,46.6,39.0,36.0,32.9,30.0,81,60,42,30.08,29.86,3,1,6,0.01
2013-5-14,59.0,48.1,35.0,36.0,31.4,28.0,90,57,30,30.10,29.98,6,1,9,0.00
2013-5-15,66.0,50.2,36.0,56.0,43.7,32.0,96,79,62,30.05,29.62,5,1,13,0.00
2013-5-16,55.0,52.2,50.0,53.0,51.7,50.0,100,98,93,29.71,29.68,2,0,3,0.00
2013-5-24,51.0,47.2,44.0,51.0,47.0,44.0,100,99,95,29.95,29.88,5,1,14,0.06
2013-5-25,53.0,48.3,45.0,48.0,43.1,40.0,100,83,68,29.95,29.88,11,2,18,0.05
2013-5-26,62.0,53.9,47.0,44.0,40.7,38.0,77,62,44,30.14,29.88,9,2,16,0.02
2013-5-27,67.0,49.4,43.0,46.0,40.4,37.0,84,73,38,30.20,30.14,5,1,9,0.02
2013-6-1,90.0,90.0,90.0,73.0,73.0,73.0,58,58,58,29.87,29.87,3,3,7,0.00
2013-6-6,59.0,58.5,58.0,59.0,58.3,58.0,100,99,97,30.06,30.03,1,0,3,0.14
2013-6-7,59.0,58.0,57.0,59.0,58.0,56.0,100,100,100,30.04,29.73,5,1,12,1.02
2013-6-8,75.0,64.1,55.0,68.0,61.0,55.0,100,90,75,30.03,29.66,5,1,14,0.50
2013-6-9,79.0,68.4,56.0,64.0,60.8,56.0,100,79,55,30.17,30.06,4,1,7,0.09
2013-6-10,65.0,62.1,59.0,65.0,61.9,59.0,100,99,83,30.17,29.88,3,0,7,0.34
2013-6-11,74.0,65.1,61.0,65.0,61.2,57.0,100,89,68,29.88,29.60,4,1,9,0.74
2013-6-12,75.0,66.7,60.0,59.0,56.0,54.0,90,70,52,29.83,29.66,4,1,11,0.01
2013-6-13,60.0,56.9,54.0,58.0,56.7,54.0,100,99,90,29.82,29.59,8,1,15,0.34
2013-6-14,74.0,60.6,52.0,63.0,57.3,52.0,100,90,60,29.86,29.62,6,1,15,0.03
2013-6-15,79.0,65.8,53.0,64.0,55.2,50.0,100,74,37,29.98,29.86,5,1,9,0.00
2013-6-16,75.0,64.2,54.0,66.0,58.6,51.0,99,83,67,29.97,29.72,2,0,7,0.00
2013-6-17,86.0,70.4,60.0,70.0,64.2,60.0,100,84,42,29.91,29.79,4,1,13,0.04
2013-6-18,72.0,63.7,60.0,68.0,62.2,54.0,100,95,80,29.93,29.86,13,2,17,0.02
2013-6-19,72.0,64.7,53.0,55.0,51.1,48.0,98,64,45,30.16,29.92,9,2,13,0.00
2013-6-20,79.0,62.8,50.0,59.0,54.5,50.0,100,78,48,30.26,30.16,4,1,8,0.00
2013-6-22,84.0,80.8,75.0,69.0,67.2,65.0,77,64,56,30.22,30.08,6,2,8,0.00
2013-6-23,90.0,78.7,68.0,76.0,69.7,63.0,97,75,49,30.14,30.01,7,1,10,0.00
2013-6-24,90.0,77.2,68.0,78.0,73.2,68.0,100,89,62,30.04,29.93,3,1,9,0.00
2013-6-25,90.0,77.0,65.0,77.0,71.6,65.0,100,85,54,29.99,29.78,3,1,11,0.00
2013-6-26,82.0,76.0,70.0,76.0,73.1,70.0,100,91,74,29.83,29.76,2,0,5,0.08
2013-6-27,84.0,74.3,66.0,76.0,71.5,66.0,100,92,68,29.82,29.55,4,0,8,0.08
2013-6-28,83.0,75.6,69.0,74.0,71.7,69.0,100,89,69,29.54,29.44,4,1,14,0.00
2013-6-29,82.0,73.3,65.0,73.0,68.4,65.0,100,86,65,29.68,29.48,4,1,7,0.00
2013-6-30,85.0,71.9,65.0,76.0,70.2,65.0,100,95,74,29.90,29.68,3,0,11,0.00
2013-7-1,75.0,71.8,68.0,75.0,71.8,68.0,100,100,100,30.02,29.90,3,0,5,0.00
2013-7-2,84.0,77.3,72.0,81.0,75.8,72.0,100,96,83,30.14,30.02,3,0,6,0.00
2013-7-3,85.0,78.3,73.0,78.0,75.8,73.0,100,92,79,30.21,30.13,3,1,6,0.00
2013-7-4,89.0,80.7,72.0,80.0,75.7,72.0,100,86,70,30.22,30.11,5,1,10,0.00
2013-7-5,91.0,81.6,75.0,80.0,76.3,75.0,100,86,66,30.18,30.05,4,1,8,0.00
2013-7-6,90.0,81.6,74.0,77.0,75.5,72.0,100,83,58,30.11,30.01,4,1,6,0.00
2013-7-7,93.0,82.0,72.0,80.0,76.3,69.0,100,84,65,30.05,29.91,5,1,10,0.00
2013-7-8,88.0,76.4,69.0,79.0,69.9,-99.9,100,85,60,30.03,29.94,3,0,6,0.00
2013-7-9,85.0,75.2,68.0,77.0,73.1,68.0,100,94,72,30.08,29.98,3,0,5,0.00
2013-7-10,85.0,75.6,71.0,81.0,73.3,-99.9,100,96,80,30.00,29.78,3,0,6,0.00
2013-7-11,82.0,75.7,68.0,77.0,71.6,65.0,100,89,60,29.95,29.77,7,1,9,0.00
2013-7-12,82.0,74.6,67.0,69.0,64.1,59.0,98,70,58,30.15,29.94,7,1,15,0.00
2013-7-13,76.0,70.3,64.0,75.0,68.9,59.0,100,96,60,30.29,30.15,6,1,8,0.00
2013-7-14,87.0,79.4,71.0,80.0,75.6,71.0,100,89,72,30.33,30.21,3,0,6,0.00
2013-7-15,91.0,80.9,72.0,78.0,74.9,71.0,100,84,52,30.24,30.14,6,0,8,0.00
2013-7-16,91.0,80.1,68.0,75.0,71.6,68.0,100,78,48,30.22,30.14,6,1,11,0.00
2013-7-17,92.0,81.7,71.0,77.0,74.6,71.0,100,81,57,30.21,30.03,1,0,5,0.00
2013-7-18,96.0,83.2,74.0,79.0,75.8,72.0,100,81,47,30.06,29.94,5,0,6,0.00
2013-7-19,95.0,84.9,75.0,81.0,76.7,74.0,100,79,53,29.96,29.75,5,1,13,0.00
2013-7-20,90.0,81.2,77.0,78.0,72.1,-99.9,97,77,55,29.85,29.70,3,0,10,0.00
2013-7-21,84.0,76.3,67.0,67.0,64.5,61.0,91,68,47,29.97,29.85,3,1,7,0.00
2013-7-22,83.0,74.1,68.0,76.0,68.8,60.0,100,85,64,30.00,29.82,4,0,9,0.00
2013-7-23,84.0,75.4,72.0,79.0,74.7,72.0,100,98,78,29.82,29.57,2,0,8,0.00
2013-7-24,77.0,71.6,61.0,74.0,64.1,53.0,100,79,57,29.98,29.61,5,1,11,0.00
2013-7-25,72.0,65.1,59.0,57.0,52.5,48.0,75,64,57,30.08,29.99,9,2,16,0.00
2013-7-26,70.0,66.2,64.0,64.0,58.7,57.0,89,77,73,30.05,30.03,3,0,6,0.00
2013-7-27,83.0,73.2,60.0,66.0,63.2,60.0,100,74,46,30.05,29.94,5,1,8,0.00
2013-7-28,74.0,69.5,67.0,74.0,68.9,63.0,100,98,78,29.99,29.93,1,0,4,0.00
2013-7-29,69.0,67.9,67.0,69.0,67.9,67.0,100,100,100,29.97,29.96,0,0,1,0.00
2013-7-30,79.0,68.9,58.0,63.0,59.8,56.0,100,76,45,30.17,30.09,2,0,9,0.00
2013-7-31,79.0,69.1,59.0,63.0,61.3,59.0,100,79,50,30.16,30.02,4,1,6,0.00
2013-8-1,73.0,66.2,64.0,70.0,65.8,63.0,100,99,86,30.03,29.86,0,0,8,0.00
2013-8-2,81.0,70.6,64.0,72.0,64.4,61.0,100,84,51,29.89,29.81,3,0,7,0.00
2013-8-3,81.0,72.1,64.0,67.0,61.2,55.0,100,71,47,29.89,29.81,3,0,4,0.00
2013-8-4,81.0,67.7,59.0,63.0,56.7,52.0,85,69,48,29.97,29.85,3,0,4,0.00
2013-8-5,81.0,68.2,57.0,55.0,51.6,49.0,82,57,38,30.06,29.97,5,1,5,0.00
2013-8-6,82.0,67.6,55.0,59.0,55.0,50.0,84,66,43,30.12,30.05,3,0,5,0.00
2013-8-7,76.0,69.7,63.0,65.0,61.7,56.0,86,76,69,30.16,30.05,2,0,4,0.00